Time,TemperatureF,DewpointF,PressureIn,WindDirection,WindDirectionDegrees,WindSpeedMPH,WindSpeedGustMPH,Humidity,HourlyPrecipIn,Conditions,Clouds,dailyrainin,SoftwareType,DateUTC
2013-01-03 00:02:00,31.0,28.0,-100.00,West,275,8.0,11.0,88,0.00,,,-99.99,,2013-01-03 06:02:00,
2013-01-03 00:12:00,31.0,28.0,-100.00,West,270,8.0,11.0,89,0.00,,,-99.99,,2013-01-03 06:12:00,
2013-01-03 00:22:00,30.0,28.0,-100.00,West,270,7.0,11.0,89,0.00,,,-99.99,,2013-01-03 06:22:00,
2013-01-03 00:32:00,30.0,28.0,-100.00,West,280,6.0,10.0,90,0.00,,,-99.99,,2013-01-03 06:32:00,
2013-01-03 00:42:00,30.0,28.0,-100.00,West,280,6.0,10.0,90,0.00,,,-99.99,,2013-01-03 06:42:00,
2013-01-03 00:52:00,31.0,28.0,-100.00,WNW,285,7.0,11.0,90,0.00,,,-99.99,,2013-01-03 06:52:00,
2013-01-03 01:02:00,31.0,28.0,-100.00,WNW,285,7.0,11.0,90,0.00,,,-99.99,,2013-01-03 07:02:00,
2013-01-03 01:12:00,31.0,28.0,-100.00,WNW,285,8.0,12.0,89,0.00,,,-99.99,,2013-01-03 07:12:00,
2013-01-03 01:22:00,31.0,28.0,-100.00,WNW,285,9.0,12.0,89,0.00,,,-99.99,,2013-01-03 07:22:00,
2013-01-03 01:32:00,31.0,28.0,-100.00,West,280,10.0,12.0,89,0.00,,,-99.99,,2013-01-03 07:32:00,
2013-01-03 01:42:00,31.0,28.0,-100.00,West,280,10.0,12.0,89,0.00,,,-99.99,,2013-01-03 07:42:00,
2013-01-03 01:52:00,31.0,28.0,-100.00,West,280,11.0,15.0,88,0.00,,,-99.99,,2013-01-03 07:52:00,
2013-01-03 02:02:00,31.0,28.0,-100.00,West,280,11.0,15.0,88,0.00,,,-99.99,,2013-01-03 08:02:00,
2013-01-03 02:12:00,31.0,28.0,-100.00,West,265,11.0,15.0,87,0.00,,,-99.99,,2013-01-03 08:12:00,
2013-01-03 02:22:00,31.0,28.0,-100.00,West,275,9.0,12.0,87,0.00,,,-99.99,,2013-01-03 08:22:00,
2013-01-03 02:32:00,31.0,28.0,-100.00,WNW,285,9.0,11.0,87,0.00,,,-99.99,,2013-01-03 08:32:00,
2013-01-03 02:42:00,31.0,28.0,-100.00,WNW,285,9.0,11.0,87,0.00,,,-99.99,,2013-01-03 08:42:00,
2013-01-03 02:52:00,31.0,27.0,-100.00,West,275,10.0,13.0,87,0.00,,,-99.99,,2013-01-03 08:52:00,
2013-01-03 03:02:00,31.0,27.0,-100.00,WNW,285,9.0,12.0,87,0.00,,,-99.99,,2013-01-03 09:02:00,
2013-01-03 03:12:00,31.0,27.0,-100.00,West,275,9.0,12.0,86,0.00,,,-99.99,,2013-01-03 09:12:00,
2013-01-03 03:22:00,31.0,27.0,-100.00,West,275,9.0,12.0,86,0.00,,,-99.99,,2013-01-03 09:22:00,
2013-01-03 03:33:00,31.0,27.0,-100.00,WNW,285,12.0,16.0,86,0.00,,,-99.99,,2013-01-03 09:33:00,
2013-01-03 03:42:00,31.0,27.0,-100.00,WNW,285,12.0,16.0,86,0.00,,,-99.99,,2013-01-03 09:42:00,
2013-01-03 03:52:00,31.0,27.0,-100.00,WSW,240,9.0,14.0,86,0.00,,,-99.99,,2013-01-03 09:52:00,
2013-01-03 04:02:00,31.0,27.0,-100.00,WSW,240,9.0,14.0,86,0.00,,,-99.99,,2013-01-03 10:02:00,
2013-01-03 04:12:00,31.0,27.0,-100.00,WNW,285,11.0,16.0,86,0.00,,,-99.99,,2013-01-03 10:12:00,
2013-01-03 04:22:00,30.0,27.0,-100.00,WNW,285,11.0,14.0,86,0.00,,,-99.99,,2013-01-03 10:22:00,
2013-01-03 04:32:00,30.0,27.0,-100.00,West,275,12.0,15.0,86,0.00,,,-99.99,,2013-01-03 10:32:00,
2013-01-03 04:42:00,30.0,27.0,-100.00,West,275,12.0,15.0,86,0.00,,,-99.99,,2013-01-03 10:42:00,
2013-01-03 04:52:00,30.0,27.0,-100.00,WSW,255,12.0,16.0,86,0.00,,,-99.99,,2013-01-03 10:52:00,
2013-01-03 05:02:00,30.0,27.0,-100.00,WSW,255,12.0,16.0,86,0.00,,,-99.99,,2013-01-03 11:02:00,
2013-01-03 05:12:00,30.0,27.0,-100.00,West,280,11.0,16.0,86,0.00,,,-99.99,,2013-01-03 11:12:00,
2013-01-03 05:22:00,30.0,27.0,-100.00,West,265,11.0,14.0,86,0.00,,,-99.99,,2013-01-03 11:22:00,
2013-01-03 05:33:00,30.0,27.0,-100.00,WSW,255,11.0,16.0,86,0.00,,,-99.99,,2013-01-03 11:33:00,
2013-01-03 05:42:00,30.0,27.0,-100.00,WSW,255,11.0,16.0,86,0.00,,,-99.99,,2013-01-03 11:42:00,
2013-01-03 05:52:00,30.0,27.0,-100.00,West,270,11.0,19.0,87,0.00,,,-99.99,,2013-01-03 11:52:00,
2013-01-03 06:02:00,30.0,27.0,-100.00,West,270,11.0,19.0,87,0.00,,,-99.99,,2013-01-03 12:02:00,
2013-01-03 06:12:00,30.0,27.0,-100.00,West,265,14.0,17.0,87,0.00,,,-99.99,,2013-01-03 12:12:00,
2013-01-03 06:22:00,30.0,27.0,-100.00,West,260,11.0,17.0,87,0.00,,,-99.99,,2013-01-03 12:22:00,
2013-01-03 06:32:00,30.0,27.0,-100.00,West,270,13.0,18.0,87,0.00,,,-99.99,,2013-01-03 12:32:00,
2013-01-03 06:42:00,30.0,27.0,-100.00,West,270,13.0,18.0,87,0.00,,,-99.99,,2013-01-03 12:42:00,
2013-01-03 06:52:00,28.0,25.0,-100.00,NNW,330,9.0,16.0,87,0.00,,,-99.99,,2013-01-03 12:52:00,
2013-01-03 07:02:00,28.0,25.0,-100.00,NNW,330,9.0,16.0,87,0.00,,,-99.99,,2013-01-03 13:02:00,
2013-01-03 07:12:00,27.0,24.0,-100.00,North,0,14.0,17.0,89,0.00,,,-99.99,,2013-01-03 13:12:00,
2013-01-03 07:22:00,25.0,23.0,-100.00,North,0,10.0,17.0,89,0.00,,,-99.99,,2013-01-03 13:22:00,
2013-01-03 07:33:00,24.0,21.0,-100.00,NNW,340,8.0,15.0,89,0.00,,,-99.99,,2013-01-03 13:33:00,
2013-01-03 07:42:00,24.0,21.0,-100.00,NNW,340,8.0,15.0,89,0.00,,,-99.99,,2013-01-03 13:42:00,
2013-01-03 07:52:00,23.0,21.0,-100.00,WSW,240,7.0,12.0,89,0.00,,,-99.99,,2013-01-03 13:52:00,
2013-01-03 08:03:00,23.0,21.0,-100.00,WSW,240,7.0,12.0,89,0.00,,,-99.99,,2013-01-03 14:03:00,
2013-01-03 08:12:00,23.0,20.0,-100.00,SSW,200,7.0,12.0,89,0.00,,,-99.99,,2013-01-03 14:12:00,
2013-01-03 08:22:00,23.0,21.0,-100.00,NW,320,7.0,12.0,89,0.00,,,-99.99,,2013-01-03 14:22:00,
2013-01-03 08:33:00,23.0,20.0,-100.00,NNW,345,11.0,18.0,89,0.00,,,-99.99,,2013-01-03 14:33:00,
2013-01-03 08:42:00,23.0,20.0,-100.00,NNW,345,11.0,18.0,89,0.00,,,-99.99,,2013-01-03 14:42:00,
2013-01-03 08:53:00,20.0,15.0,-100.00,SW,230,15.0,27.0,81,0.00,,,-99.99,,2013-01-03 14:53:00,
2013-01-03 09:03:00,20.0,15.0,-100.00,SW,230,15.0,27.0,81,0.00,,,-99.99,,2013-01-03 15:03:00,
2013-01-03 09:12:00,19.0,13.0,-100.00,SW,220,12.0,26.0,79,0.00,,,-99.99,,2013-01-03 15:12:00,
2013-01-03 09:22:00,18.0,12.0,-100.00,WSW,240,17.0,23.0,78,0.00,,,-99.99,,2013-01-03 15:22:00,
2013-01-03 09:33:00,17.0,11.0,-100.00,WSW,245,12.0,23.0,76,0.00,,,-99.99,,2013-01-03 15:33:00,
2013-01-03 09:42:00,17.0,11.0,-100.00,WSW,245,12.0,23.0,76,0.00,,,-99.99,,2013-01-03 15:42:00,
2013-01-03 09:53:00,17.0,10.0,-100.00,SSW,200,19.0,23.0,76,0.00,,,-99.99,,2013-01-03 15:53:00,
2013-01-03 10:03:00,17.0,10.0,-100.00,SSW,200,19.0,23.0,76,0.00,,,-99.99,,2013-01-03 16:03:00,
2013-01-03 10:12:00,16.0,10.0,-100.00,SSW,200,13.0,22.0,76,0.00,,,-99.99,,2013-01-03 16:12:00,
2013-01-03 10:22:00,16.0,9.0,-100.00,SW,235,17.0,24.0,74,0.00,,,-99.99,,2013-01-03 16:22:00,
2013-01-03 10:33:00,16.0,9.0,-100.00,SW,220,11.0,24.0,74,0.00,,,-99.99,,2013-01-03 16:33:00,
2013-01-03 10:43:00,16.0,9.0,-100.00,SW,220,11.0,24.0,74,0.00,,,-99.99,,2013-01-03 16:43:00,
2013-01-03 10:52:00,16.0,9.0,-100.00,SSW,210,13.0,22.0,73,0.00,,,-99.99,,2013-01-03 16:52:00,
2013-01-03 11:03:00,16.0,9.0,-100.00,SSW,210,13.0,22.0,73,0.00,,,-99.99,,2013-01-03 17:03:00,
2013-01-03 11:12:00,15.0,9.0,-100.00,West,265,16.0,24.0,73,0.00,,,-99.99,,2013-01-03 17:12:00,
2013-01-03 11:22:00,16.0,9.0,-100.00,SW,225,11.0,21.0,73,0.00,,,-99.99,,2013-01-03 17:22:00,
2013-01-03 11:33:00,17.0,9.0,-100.00,WSW,240,15.0,17.0,73,0.00,,,-99.99,,2013-01-03 17:33:00,
2013-01-03 11:42:00,16.0,8.0,-100.00,WSW,250,12.0,20.0,72,0.00,,,-99.99,,2013-01-03 17:42:00,
2013-01-03 11:52:00,16.0,8.0,-100.00,SSW,200,16.0,19.0,72,0.00,,,-99.99,,2013-01-03 17:52:00,
2013-01-03 12:03:00,16.0,8.0,-100.00,SSW,200,16.0,19.0,72,0.00,,,-99.99,,2013-01-03 18:03:00,
2013-01-03 12:13:00,17.0,9.0,-100.00,NNW,340,12.0,20.0,72,0.00,,,-99.99,,2013-01-03 18:13:00,
2013-01-03 12:22:00,17.0,9.0,-100.00,WSW,250,14.0,20.0,71,0.00,,,-99.99,,2013-01-03 18:22:00,
2013-01-03 12:33:00,17.0,9.0,-100.00,SW,215,11.0,20.0,70,0.00,,,-99.99,,2013-01-03 18:33:00,
2013-01-03 12:42:00,17.0,9.0,-100.00,SW,215,11.0,20.0,70,0.00,,,-99.99,,2013-01-03 18:42:00,
2013-01-03 12:53:00,16.0,9.0,-100.00,SW,220,14.0,18.0,71,0.00,,,-99.99,,2013-01-03 18:53:00,
2013-01-03 13:03:00,16.0,9.0,-100.00,SW,220,14.0,18.0,71,0.00,,,-99.99,,2013-01-03 19:03:00,
2013-01-03 13:12:00,17.0,9.0,-100.00,SW,220,13.0,17.0,71,0.00,,,-99.99,,2013-01-03 19:12:00,
2013-01-03 13:55:00,18.0,9.0,-100.00,West,270,10.0,17.0,69,0.00,,,-99.99,,2013-01-03 19:55:00,
2013-01-03 14:03:00,19.0,10.0,-100.00,WSW,240,7.0,12.0,69,0.00,,,-99.99,,2013-01-03 20:03:00,
2013-01-03 14:12:00,18.0,10.0,-100.00,SW,235,12.0,15.0,68,0.00,,,-99.99,,2013-01-03 20:12:00,
2013-01-03 14:22:00,19.0,10.0,-100.00,WSW,255,8.0,15.0,69,0.00,,,-99.99,,2013-01-03 20:22:00,
2013-01-03 14:33:00,19.0,11.0,-100.00,NNW,335,9.0,12.0,68,0.00,,,-99.99,,2013-01-03 20:33:00,
2013-01-03 14:42:00,19.0,11.0,-100.00,NNW,335,9.0,12.0,68,0.00,,,-99.99,,2013-01-03 20:42:00,
2013-01-03 14:53:00,19.0,10.0,-100.00,SW,215,9.0,12.0,67,0.00,,,-99.99,,2013-01-03 20:53:00,
2013-01-03 15:02:00,19.0,10.0,-100.00,SW,215,9.0,12.0,67,0.00,,,-99.99,,2013-01-03 21:02:00,
2013-01-03 15:12:00,19.0,10.0,-100.00,NW,315,8.0,11.0,67,0.00,,,-99.99,,2013-01-03 21:12:00,
2013-01-03 15:22:00,19.0,11.0,-100.00,West,275,6.0,10.0,68,0.00,,,-99.99,,2013-01-03 21:22:00,
2013-01-03 15:36:00,20.0,11.0,-100.00,SW,225,6.0,9.0,66,0.00,,,-99.99,,2013-01-03 21:36:00,
2013-01-03 15:47:00,20.0,11.0,-100.00,SW,225,6.0,9.0,66,0.00,,,-99.99,,2013-01-03 21:47:00,
2013-01-03 15:52:00,20.0,11.0,-100.00,NW,310,5.0,9.0,68,0.00,,,-99.99,,2013-01-03 21:52:00,
2013-01-03 16:02:00,20.0,11.0,-100.00,NW,310,5.0,9.0,68,0.00,,,-99.99,,2013-01-03 22:02:00,
2013-01-03 16:12:00,19.0,10.0,-100.00,WSW,250,6.0,7.0,68,0.00,,,-99.99,,2013-01-03 22:12:00,
2013-01-03 16:22:00,18.0,10.0,-100.00,NNW,340,5.0,8.0,69,0.00,,,-99.99,,2013-01-03 22:22:00,
2013-01-03 16:33:00,17.0,10.0,-100.00,NW,315,4.0,6.0,71,0.00,,,-99.99,,2013-01-03 22:33:00,
2013-01-03 16:42:00,17.0,10.0,-100.00,NW,315,4.0,6.0,71,0.00,,,-99.99,,2013-01-03 22:42:00,
2013-01-03 16:52:00,17.0,10.0,-100.00,WNW,285,8.0,10.0,73,0.00,,,-99.99,,2013-01-03 22:52:00,
2013-01-03 17:02:00,17.0,10.0,-100.00,WNW,285,8.0,10.0,73,0.00,,,-99.99,,2013-01-03 23:02:00,
2013-01-03 17:12:00,17.0,10.0,-100.00,WNW,285,7.0,10.0,73,0.00,,,-99.99,,2013-01-03 23:12:00,
2013-01-03 17:22:00,17.0,10.0,-100.00,WNW,285,7.0,10.0,73,0.00,,,-99.99,,2013-01-03 23:22:00,
2013-01-03 17:32:00,16.0,9.0,-100.00,West,280,6.0,7.0,74,0.00,,,-99.99,,2013-01-03 23:32:00,
2013-01-03 17:42:00,16.0,9.0,-100.00,West,280,6.0,7.0,74,0.00,,,-99.99,,2013-01-03 23:42:00,
2013-01-03 17:52:00,15.0,9.0,-100.00,WNW,285,6.0,8.0,75,0.00,,,-99.99,,2013-01-03 23:52:00,
2013-01-03 18:03:00,15.0,9.0,-100.00,WNW,285,6.0,8.0,75,0.00,,,-99.99,,2013-01-04 00:03:00,
2013-01-03 18:12:00,15.0,9.0,-100.00,WNW,285,6.0,8.0,76,0.00,,,-99.99,,2013-01-04 00:12:00,
2013-01-03 18:22:00,15.0,8.0,-100.00,West,270,6.0,8.0,76,0.00,,,-99.99,,2013-01-04 00:22:00,
2013-01-03 18:32:00,15.0,10.0,-100.00,West,270,5.0,9.0,78,0.00,,,-99.99,,2013-01-04 00:32:00,
2013-01-03 18:42:00,15.0,10.0,-100.00,West,270,5.0,9.0,78,0.00,,,-99.99,,2013-01-04 00:42:00,
2013-01-03 18:52:00,16.0,10.0,-100.00,WSW,250,4.0,6.0,79,0.00,,,-99.99,,2013-01-04 00:52:00,
2013-01-03 19:02:00,16.0,10.0,-100.00,WSW,250,4.0,6.0,79,0.00,,,-99.99,,2013-01-04 01:02:00,
2013-01-03 19:12:00,15.0,10.0,-100.00,WSW,245,4.0,6.0,79,0.00,,,-99.99,,2013-01-04 01:12:00,
2013-01-03 19:22:00,15.0,10.0,-100.00,West,260,6.0,7.0,80,0.00,,,-99.99,,2013-01-04 01:22:00,
2013-01-03 19:32:00,14.0,9.0,-100.00,SW,220,3.0,6.0,81,0.00,,,-99.99,,2013-01-04 01:32:00,
2013-01-03 19:42:00,14.0,9.0,-100.00,SW,220,3.0,6.0,81,0.00,,,-99.99,,2013-01-04 01:42:00,
2013-01-03 19:52:00,13.0,9.0,-100.00,SW,225,3.0,6.0,83,0.00,,,-99.99,,2013-01-04 01:52:00,
2013-01-03 20:02:00,13.0,9.0,-100.00,SW,225,3.0,6.0,83,0.00,,,-99.99,,2013-01-04 02:02:00,
2013-01-03 20:12:00,13.0,9.0,-100.00,SW,230,3.0,5.0,84,0.00,,,-99.99,,2013-01-04 02:12:00,
2013-01-03 20:22:00,13.0,9.0,-100.00,SSW,210,4.0,4.0,84,0.00,,,-99.99,,2013-01-04 02:22:00,
2013-01-03 20:32:00,12.0,9.0,-100.00,East,80,4.0,7.0,86,0.00,,,-99.99,,2013-01-04 02:32:00,
2013-01-03 20:42:00,12.0,9.0,-100.00,East,80,4.0,7.0,86,0.00,,,-99.99,,2013-01-04 02:42:00,
2013-01-03 20:52:00,11.0,9.0,-100.00,SSW,200,7.0,8.0,88,0.00,,,-99.99,,2013-01-04 02:52:00,
2013-01-03 21:02:00,11.0,9.0,-100.00,SSW,200,7.0,8.0,88,0.00,,,-99.99,,2013-01-04 03:02:00,
2013-01-03 21:12:00,11.0,8.0,-100.00,SSW,195,6.0,7.0,89,0.00,,,-99.99,,2013-01-04 03:12:00,
2013-01-03 21:22:00,10.0,8.0,-100.00,ENE,60,5.0,7.0,89,0.00,,,-99.99,,2013-01-04 03:22:00,
2013-01-03 21:32:00,10.0,8.0,-100.00,SSW,200,2.0,6.0,90,0.00,,,-99.99,,2013-01-04 03:32:00,
2013-01-03 21:42:00,10.0,8.0,-100.00,SSW,200,2.0,6.0,90,0.00,,,-99.99,,2013-01-04 03:42:00,
2013-01-03 21:52:00,9.0,7.0,-100.00,SW,225,2.0,4.0,90,0.00,,,-99.99,,2013-01-04 03:52:00,
2013-01-03 22:02:00,9.0,7.0,-100.00,SW,225,2.0,4.0,90,0.00,,,-99.99,,2013-01-04 04:02:00,
2013-01-03 22:12:00,10.0,8.0,-100.00,SW,220,3.0,6.0,91,0.00,,,-99.99,,2013-01-04 04:12:00,
2013-01-03 22:22:00,11.0,9.0,-100.00,SSW,195,4.0,6.0,91,0.00,,,-99.99,,2013-01-04 04:22:00,
2013-01-03 22:32:00,10.0,8.0,-100.00,SSW,200,4.0,6.0,91,0.00,,,-99.99,,2013-01-04 04:32:00,
2013-01-03 22:42:00,10.0,8.0,-100.00,SSW,200,4.0,6.0,91,0.00,,,-99.99,,2013-01-04 04:42:00,
2013-01-03 22:52:00,10.0,8.0,-100.00,SSW,195,4.0,6.0,91,0.00,,,-99.99,,2013-01-04 04:52:00,
2013-01-03 23:03:00,10.0,8.0,-100.00,SSW,195,4.0,6.0,91,0.00,,,-99.99,,2013-01-04 05:03:00,
2013-01-03 23:12:00,11.0,9.0,-100.00,ESE,110,4.0,6.0,91,0.00,,,-99.99,,2013-01-04 05:12:00,
2013-01-03 23:22:00,10.0,8.0,-100.00,SSW,195,4.0,6.0,91,0.00,,,-99.99,,2013-01-04 05:22:00,
2013-01-03 23:33:00,11.0,9.0,-100.00,East,80,4.0,6.0,91,0.00,,,-99.99,,2013-01-04 05:33:00,
2013-01-03 23:42:00,11.0,9.0,-100.00,East,80,4.0,6.0,91,0.00,,,-99.99,,2013-01-04 05:42:00,
2013-01-03 23:52:00,12.0,10.0,-100.00,SSW,200,6.0,9.0,91,0.00,,,-99.99,,2013-01-04 05:52:00,